Location: Mohawk View
(42.7837°N, 73.7885°W)
Time: 12:42:42
(UTC+00:00)

SL-24 DEB - Pass Details

Date: 17 June 2021
Orbit: 664 x 701 km, 92.0° (Epoch: 26 July)

Event Time Altitude Azimuth Distance (km) Brightness Sun altitude
Rises 01:08:13 0° 175° (S) 3,042 7.2 -5.6°
Reaches altitude 10° 01:10:27 10° 175° (S) 2,136 6.4 -5.9°
Maximum altitude 01:15:11 86° 266° (W) 703 4.4 -6.6°
Drops below altitude 10° 01:19:59 10° 354° (N) 2,170 7.6 -7.2°
Sets 01:22:16 0° 355° (N) 3,095 8.4 -7.6°
